Meteo Giornale » Osservazioni meteo Croazia » Osijek
ore: 22:00 - Osservazioni Meteo Osijek
Lat. 45° 28' N Lon. 18° 49' E Alt. 89 metri s.l.m.
20 °C
Sereno
Temp. 24 Ore
18 °C
31 °C
Nord
9.3 Km/h
Dew point 10 °C
Umidità 52 %
Visibilità 10 Km
Il sole sorge alle ore 06:07
Il sole tramonta alle ore 19:21
| Data e Ora | Cielo e Fenomeni | T °C | DP °C | Um. % | Pres. hPa | Vis. km | Vento km/h | |
|---|---|---|---|---|---|---|---|---|
| Ieri h: 22:00 | Sereno | 20 | 10 | 52 | 1019 | 10 | N 9.3 | |
| Ieri h: 21:30 | Sereno | 19 | 9 | 52 | 1020 | 10 | N 5.5 | |
| Ieri h: 21:00 | Sereno | 20 | 10 | 52 | 1019 | 10 | N 5.5 | |
| Ieri h: 20:30 | Sereno | 23 | 9 | 40 | 1019 | 10 | N/NE 7.4 | |
| Ieri h: 20:00 | Sereno | 23 | 9 | 40 | 1019 | 10 | NE 7.4 | |
| Ieri h: 19:30 | Sereno | 26 | 9 | 34 | 1019 | 10 | NE 7.4 | |
| Ieri h: 19:00 | Sereno | 29 | 9 | 28 | 1018 | 10 | NE 7.4 | |
| Ieri h: 18:30 | Sereno | 30 | 10 | 28 | 1018 | 10 | N/NE 9.3 | |
| Ieri h: 18:00 | Sereno | 31 | 10 | 27 | 1018 | 10 | N/NE 13 | |
| Ieri h: 17:30 | Sereno | 31 | 10 | 27 | 1018 | 10 | N/NO 9.3 | |
| Ieri h: 17:00 | Sereno | 31 | 10 | 27 | 1018 | 10 | N 7.4 | |
| Ieri h: 16:30 | Sereno | 31 | 11 | 29 | 1018 | 10 | N 5.5 | |
| Ieri h: 16:00 | Sereno | 31 | 11 | 29 | 1019 | 10 | NE 13 | |
| Ieri h: 15:30 | Sereno | 31 | 11 | 29 | 1019 | 10 | N 9.3 | |
| Ieri h: 15:00 | Sereno | 31 | 11 | 29 | 1019 | 10 | N 7.4 | |
| Ieri h: 14:30 | Sereno | 30 | 11 | 30 | 1019 | 10 | NO 14.8 | |
| Ieri h: 14:00 | Sereno | 30 | 12 | 33 | 1020 | 10 | N/NO 13 | |
| Ieri h: 13:30 | Sereno | 30 | 12 | 33 | 1020 | 10 | N 11.1 | |
| Ieri h: 13:00 | Sereno | 29 | 13 | 37 | 1020 | 10 | N 14.8 | |
| Ieri h: 12:30 | Sereno | 28 | 14 | 42 | 1020 | 10 | N/NO 14.8 | |
| Ieri h: 12:00 | Sereno | 28 | 14 | 42 | 1020 | 10 | N/NO 14.8 | |
| Ieri h: 11:30 | Sereno | 27 | 14 | 44 | 1020 | 10 | NO 16.7 | |
| Ieri h: 11:00 | Sereno | 27 | 14 | 44 | 1020 | 10 | N/NO 18.5 | |
| Ieri h: 10:30 | Sereno | 25 | 16 | 57 | 1020 | 10 | O/NO 14.8 | |
| Ieri h: 10:00 | Sereno | 24 | 17 | 64 | 1021 | 10 | O/NO 20.3 | |
| Ieri h: 09:30 | Sereno | 22 | 18 | 78 | 1020 | 10 | O 16.7 | |
| Ieri h: 09:00 | Sereno | 20 | 18 | 88 | 1020 | 10 | O/NO 18.5 | |
| Ieri h: 08:30 | Sereno | 20 | 17 | 82 | 1020 | 10 | O 14.8 | |
| Ieri h: 08:00 | Sereno | 19 | 16 | 82 | 1020 | 10 | O/NO 18.5 | |
| Ieri h: 07:30 | Pioggia | 18 | 16 | 88 | 1019 | 10 | O/NO 14.8 | |



